959  
ASUS43 KFSD 071910  
RWRFSD  
 
WEATHER ROUNDUP FOR SE SOUTH DAKOTA/SW MINNESOTA/NW IOWA  
NATIONAL WEATHER SERVICE SIOUX FALLS SD  
200 PM CDT SUN AUG 07 2022  
 
NOTE: "FAIR" INDICATES FEW OR NO CLOUDS BELOW 12,000 FEET WITH NO  
SIGNIFICANT WEATHER AND OR S TO VISIBILITY
.  
 
 
SDZ038>040-050-052>070-072000-  
SOUTHEAST SOUTH DAKOTA  
 
CITY SKY/WX TMP DP RH WIND PRES REMARKS
 
BROOKINGS CLOUDY 68 63 84 NW10 30.07R  
CHAMBERLAIN CLOUDY 71 58 64 N13G22 30.10F HAZE  
HURON CLOUDY 69 61 75 N15G24 30.08S  
MADISON MIX PCPN 64 64 100 N10 30.06R FOG  
MITCHELL CLOUDY 66 60 81 NW15 30.08R  
SIOUX FALLS CLOUDY 73 66 78 NE8 30.01S  
WINNER CLOUDY 68 53 58 NW15 30.13R  
YANKTON CLOUDY 69 66 90 NW14 30.03R  

 
 
MNZ071-072-080-081-089-090-097-098-072000-  
SOUTHWEST MINNESOTA  
 
CITY SKY/WX TMP DP RH WIND PRES REMARKS
 
FAIRMONT CLOUDY 76 71 85 N8 30.02S  
JACKSON CLOUDY 70 70 100 NE9 30.03S  
LUVERNE CLOUDY 70 64 83 NE8 30.02F  
MARSHALL CLOUDY 72 64 76 N10 30.04F  
MONTEVIDEO CLOUDY 70 64 83 N10 30.05S  
REDWOOD FALLS PTSUNNY 76 65 68 NE8 30.02S  
TRACY CLOUDY 75 62 64 NE8 30.03F  
WINDOM CLOUDY 70 66 88 NE8 30.02F  
WORTHINGTON CLOUDY 70 67 90 NE13 30.03F  

 
 
IAZ001>003-012>014-020>022-031-032-NEZ013-014-SDZ071-072000-  
NORTHWEST IOWA  
 
CITY SKY/WX TMP DP RH WIND PRES REMARKS
 
CHEROKEE PTSUNNY 79 76 89 SE6 29.97F  
DENISON MOSUNNY 86 86 100 SE10G16 29.95S HX 112  
ESTHERVILLE CLOUDY 75 70 84 NE14 30.00F  
LE MARS MOSUNNY 84 73 70 SE13 29.94F  
MAURICE CLOUDY 81 75 83 SE5 29.95F  
SHELDON PTSUNNY 75 72 88 NE12 29.97F  
SIOUX CITY PTSUNNY 86 75 69 SE5 29.94S HX 95  
SPENCER NOT AVBL  
STORM LAKE PTSUNNY 77 77 100 SE12 29.97F  

 
 
ABBREVIATIONS USED IN REMARKS  
TC - TEMPERATURE IN CELSIUS  
WCI - WIND CHILL INDEX  
HX - HEAT INDEX  
VSB - VISIBILITY  
 
 
 
CLICK HERE TO GO TO PREVIOUS BULLETINS.

The Nexlab SD Page
The Nexlab IA Page
The Nexlab MN Page
The Nexlab NE Page Main Text Page